This is the latest recevied weather packets stored in our database for station/object W1GK. If no packets are shown the sender has not sent any weather packets the latest 10 day(s).
| Time | Temp. | Humidity | Pressure | Rain* | Wind** | Luminosity | Snow |
|---|---|---|---|---|---|---|---|
| 1788107394 | 31.67° C | 20% | 1013.7 hPa | 0 mm | - | 606 W/m² | - |
| 1788106795 | 31.67° C | 21% | 1013.6 hPa | 0 mm | - | 584 W/m² | - |
| 1788106196 | 31.11° C | 21% | 1013.6 hPa | 0 mm | - | 570 W/m² | - |
| 1788105596 | 30.56° C | 22% | 1013.5 hPa | 0 mm | - | 285 W/m² | - |
| 1788104993 | 30° C | 22% | 1013.5 hPa | 0 mm | - | 148 W/m² | - |
| 1788104395 | 30° C | 23% | 1013.4 hPa | 0 mm | - | 153 W/m² | - |
| 1788103795 | 30° C | 23% | 1013.4 hPa | 0 mm | - | 127 W/m² | - |
| 1788103194 | 30° C | 23% | 1013.4 hPa | 0 mm | - | 127 W/m² | - |
| 1788102594 | 30° C | 23% | 1013.4 hPa | 0 mm | - | 134 W/m² | - |
| 1788101995 | 30° C | 23% | 1013.4 hPa | 0 mm | - | 301 W/m² | - |
| 1788101393 | 30° C | 24% | 1013.5 hPa | 0 mm | - | 343 W/m² | - |
| 1788100794 | 29.44° C | 25% | 1013.3 hPa | 0 mm | - | 262 W/m² | - |
| 1788100195 | 28.89° C | 25% | 1013.2 hPa | 0 mm | - | 216 W/m² | - |
| 1788099594 | 28.89° C | 26% | 1013.1 hPa | 0 mm | - | 35 W/m² | - |
| 1788098993 | 28.89° C | 26% | 1013.1 hPa | 0 mm | - | 33 W/m² | - |
| 1788098395 | 28.89° C | 27% | 1013 hPa | 0 mm | - | 93 W/m² | - |
| 1788097794 | 28.89° C | 28% | 1012.8 hPa | 0 mm | - | 95 W/m² | - |
| 1788097195 | 28.89° C | 28% | 1012.8 hPa | 0 mm | - | 25 W/m² | - |
| 1788096594 | 28.89° C | 28% | 1012.7 hPa | 0 mm | - | 14 W/m² | - |
| 1788095995 | 28.89° C | 28% | 1012.5 hPa | 0 mm | - | 7 W/m² | - |
| 1788095394 | 28.89° C | 28% | 1012.4 hPa | 0 mm | - | 5 W/m² | - |
| 1788094794 | 28.89° C | 28% | 1012.1 hPa | 0 mm | - | 0 W/m² | - |
| 1788094193 | 28.89° C | 28% | 1012 hPa | 0 mm | - | 0 W/m² | - |
| 1788093593 | 29.44° C | 29% | 1012.1 hPa | 0 mm | - | 0 W/m² | - |
| 1788092993 | 29.44° C | 29% | 1011.9 hPa | 0 mm | - | 0 W/m² | - |
* Rain latest hour (hover to see other rain measurements)
** Current wind speed in m/s (hover to see current wind gust speed)